This demonstration page uses our WeatherBlox Daily Observations layout. Learn more.

Left ArrowRight Arrow

Hourly Observations for June 27, 2019

Temp ( °F °C ) Dew Point ( °F °C ) Humidity (%) Winds ( mph kmh ) Pressure ( in mb ) Visibility ( mi km ) Precip ( " mm )
12:56 am 00:56 Clear 77 25 66 19 69 69 SE 8 13 29.98 1015 10 16 0.00 0.00
1:56 am 01:56 Clear 75 24 68 20 78 78 SE 6 9 29.97 1015 10 16 0.00 0.00
2:56 am 02:56 Clear 73 23 68 20 83 83 ESE 6 9 29.95 1014 10 16 0.00 0.00
3:56 am 03:56 Mostly Clear 75 24 70 21 83 83 undefined N/A 29.94 1014 10 16 0.00 0.00
4:56 am 04:56 Partly Cloudy 75 24 70 21 83 83 SSE 7 11 29.95 1014 10 16 0.00 0.00
5:56 am 05:56 undefined N/A N/A N/A SSE 7 11 N/A N/A 0.00 0.00
6:56 am 06:56 Partly Cloudy 75 24 57 14 54 54 S 13 20 29.94 1014 10 16 0.00 0.00
7:56 am 07:56 Mostly Sunny 79 26 70 21 74 74 S 13 20 29.96 1015 7 11 0.00 0.00
8:56 am 08:56 Mostly Sunny 79 26 70 21 74 74 S 12 19 29.96 1015 7 11 0.00 0.00
9:56 am 09:56 Mostly Sunny 82 28 70 21 66 66 S 15 24 29.92 1013 7 11 0.00 0.00
10:56 am 10:56 Mostly Sunny 84 29 70 21 62 62 SE 17 28 29.91 1013 7 11 0.00 0.00
11:56 am 11:56 Mostly Sunny 86 30 70 21 59 59 S 10 17 29.95 1014 7 11 0.00 0.00
12:56 pm 12:56 Partly Cloudy 84 29 72 22 66 66 SSE 16 26 29.93 1013 7 11 0.00 0.00
1:56 pm 13:56 Partly Cloudy 86 30 72 22 62 62 S 17 28 29.90 1013 7 11 0.00 0.00
2:56 pm 14:56 Sunny 88 31 72 22 59 59 S 18 30 29.90 1012 8 13 0.00 0.00
3:56 pm 15:56 Mostly Sunny 88 31 72 22 59 59 S 20 31 29.88 1012 10 16 0.00 0.00
4:56 pm 16:56 Mostly Sunny 90 32 72 22 55 55 S 13 20 29.88 1012 9 14 0.00 0.00
5:56 pm 17:56 Mostly Cloudy 91 33 72 22 52 52 S 9 15 29.88 1012 9 14 0.00 0.00
6:56 pm 18:56 Mostly Sunny 90 32 72 22 55 55 S 14 22 29.87 1011 7 11 0.00 0.00
7:56 pm 19:56 Mostly Sunny 88 31 72 22 59 59 SE 7 11 29.88 1012 7 11 0.00 0.00
8:56 pm 20:56 Mostly Sunny 86 30 72 22 62 62 SSE 8 13 29.88 1012 7 11 0.00 0.00
9:56 pm 21:56 Mostly Clear 84 29 72 22 66 66 SE 9 15 29.90 1013 7 11 0.00 0.00
10:56 pm 22:56 Mostly Clear 82 28 72 22 70 70 SE 8 13 29.91 1013 10 16 0.00 0.00
11:56 pm 23:56 Partly Cloudy 81 27 72 22 74 74 SSE 10 17 29.91 1013 10 16 0.00 0.00

Powered by AerisWeather